Location: Newark
(40.9833°N, 0.0333°W)
Time: 20:07:07
(UTC+00:00)

Vanguard 2 Rocket - Pass Details

Date: 02 November 2020
Orbit: 554 x 3326 km, 32.9° (Epoch: 25 November)

Event Time Altitude Azimuth Distance (km) Brightness Sun altitude
Rises 15:42:46 0° 223° (SW) 3,482 11.6 11.4°
Reaches altitude 10° 15:46:32 10° 203° (SSW) 2,192 9.9 10.8°
Maximum altitude 15:49:26 16° 165° (SSE) 1,634 8.5 10.3°
Drops below altitude 10° 15:51:58 10° 126° (SE) 1,869 8.3 9.9°
Sets 15:54:47 0° 102° (ESE) 2,716 8.9 9.4°
